FW6629 Weather Reports


Display with metric or nautical units.
time (UTC)temp
F
wind
direction
speed
MPH
gust
MPH
rain 1hr
in
rain 24hr
in
rain mn
in
humidity
%
barometer
mb
20260905054603 79 106 1.0 2.0 0.00 0.00 0.00 85 1014.2
20260905054025 79 113 1.0 2.0 0.00 0.00 0.00 85 1014.3
20260905053524 79 117 1.0 2.0 0.00 0.00 0.00 85 1014.3
20260905053110 79 117 0.0 2.0 0.00 0.00 0.00 85 1014.3
20260905052529 79 117 0.0 2.0 0.00 0.00 0.00 85 1014.1
20260905052025 79 162 0.0 2.0 0.00 0.00 0.00 85 1014.2
20260905051544 79 0 0.0 2.0 0.00 0.00 0.00 86 1014.2
20260905051024 79 133 0.0 2.0 0.00 0.00 0.00 86 1014.3
20260905050526 79 129 1.0 2.0 0.00 0.00 0.00 86 1014.4
20260905050051 79 143 1.0 2.0 0.00 0.00 0.00 86 1014.4
20260905045524 79 139 0.0 2.0 0.00 0.00 0.00 86 1014.3
20260905045025 79 0 0.0 2.0 0.00 0.00 0.00 86 1014.5
20260905044549 79 130 0.0 2.0 0.00 0.00 0.00 86 1014.5
20260905044025 79 0 0.0 2.0 0.00 0.00 0.00 86 1014.6
20260905043525 79 142 0.0 2.0 0.00 0.00 0.00 86 1014.5
20260905043047 79 131 1.0 2.0 0.00 0.00 0.00 87 1014.5
20260905042527 79 100 1.0 2.0 0.00 0.00 0.00 87 1014.4
20260905042025 79 0 0.0 2.0 0.00 0.00 0.00 87 1014.5
20260905041546 79 141 0.0 2.0 0.00 0.00 0.00 87 1014.5
20260905041027 79 162 0.0 2.0 0.00 0.00 0.00 86 1014.6
20260905040525 79 0 0.0 2.0 0.00 0.00 0.00 86 1014.6
20260905040051 79 133 1.0 2.0 0.00 0.00 0.00 86 1014.7
20260905035525 79 0 0.0 2.0 0.00 0.00 0.00 86 1014.7
20260905035024 79 133 1.0 2.0 0.00 0.00 0.00 86 1014.8
20260905034551 79 133 0.0 2.0 0.00 0.00 0.00 86 1014.9
20260905034024 79 0 0.0 2.0 0.00 0.00 0.00 86 1015.0
20260905033525 79 133 0.0 1.0 0.00 0.00 0.00 86 1014.9
20260905033058 80 0 0.0 2.0 0.00 0.00 0.00 85 1014.9
20260905032526 80 133 0.0 2.0 0.00 0.00 0.00 85 1015.0
20260905032025 80 133 0.0 2.0 0.00 0.00 0.00 85 1015.1
20260905031559 80 0 0.0 2.0 0.00 0.00 0.00 85 1015.1
20260905031023 80 133 1.0 2.0 0.00 0.00 0.00 85 1015.2
20260905030523 80 133 1.0 2.0 0.00 0.00 0.00 85 1015.1
20260905030058 80 0 0.0 1.0 0.00 0.00 0.00 84 1015.2
20260905025524 80 0 0.0 1.0 0.00 0.00 0.00 84 1015.3
20260905025025 81 0 0.0 2.0 0.00 0.00 0.00 83 1015.2
20260905024630 81 0 0.0 2.0 0.00 0.00 0.00 83 1015.3
20260905024025 81 0 0.0 1.0 0.00 0.00 0.00 82 1015.3
20260905023528 81 133 1.0 2.0 0.00 0.00 0.00 83 1015.3
20260905023058 81 154 0.0 2.0 0.00 0.00 0.00 82 1015.2
20260905022524 81 0 0.0 0.0 0.00 0.00 0.00 81 1015.2
20260905022026 82 0 0.0 0.0 0.00 0.00 0.00 81 1015.2
20260905021548 82 0 0.0 0.0 0.00 0.00 0.00 80 1015.2
20260905021024 82 0 0.0 2.0 0.00 0.00 0.00 80 1015.3
20260905020525 82 0 0.0 2.0 0.00 0.00 0.00 81 1015.2
20260905020050 82 352 0.0 3.0 0.00 0.00 0.00 80 1015.2
20260905015525 82 346 1.0 3.0 0.00 0.00 0.00 81 1015.1
20260905015025 82 360 1.0 2.0 0.00 0.00 0.00 81 1015.1
20260905014551 82 21 0.0 2.0 0.00 0.00 0.00 81 1015.1
20260905014024 82 0 0.0 2.0 0.00 0.00 0.00 81 1015.2
20260905013526 82 0 0.0 2.0 0.00 0.00 0.00 80 1015.1
20260905013051 82 103 0.0 2.0 0.00 0.00 0.00 80 1015.0
20260905012525 82 103 0.0 2.0 0.00 0.00 0.00 80 1014.9
20260905012026 82 0 0.0 2.0 0.00 0.00 0.00 79 1014.9
20260905011556 82 103 1.0 2.0 0.00 0.00 0.00 78 1014.8
20260905011028 82 0 0.0 2.0 0.00 0.00 0.00 78 1014.7
20260905010525 83 82 0.0 2.0 0.00 0.00 0.00 77 1014.7
20260905010044 83 0 0.0 2.0 0.00 0.00 0.00 77 1014.7
20260905005528 83 110 1.0 3.0 0.00 0.00 0.00 77 1014.7
20260905005025 83 102 2.0 3.0 0.00 0.00 0.00 76 1014.7
20260905004559 84 108 1.0 3.0 0.00 0.00 0.00 76 1014.6
20260905004027 84 0 0.0 0.0 0.00 0.00 0.00 75 1014.6
20260905003524 84 0 0.0 0.0 0.00 0.00 0.00 75 1014.5
20260905003049 84 0 0.0 0.0 0.00 0.00 0.00 75 1014.5
20260905002525 84 0 0.0 0.0 0.00 0.00 0.00 74 1014.6
20260905002025 85 0 0.0 0.0 0.00 0.00 0.00 73 1014.6
20260905001544 85 0 0.0 2.0 0.00 0.00 0.00 73 1014.6
20260905001025 86 0 0.0 2.0 0.00 0.00 0.00 71 1014.5
20260905000526 86 0 0.0 2.0 0.00 0.00 0.00 70 1014.6
20260905000051 87 0 0.0 2.0 0.00 0.00 0.00 69 1014.6
20260904235524 88 0 0.0 2.0 0.00 0.00 0.00 68 1014.6
20260904235032 88 0 0.0 2.0 0.00 0.00 0.00 66 1014.6
20260904234551 89 92 0.0 1.0 0.00 0.00 0.00 65 1014.6
20260904234025 89 92 0.0 2.0 0.00 0.00 0.00 65 1014.5
20260904233525 90 0 0.0 2.0 0.00 0.00 0.00 60 1014.5
20260904233059 90 0 0.0 2.0 0.00 0.00 0.00 59 1014.4
20260904232524 91 316 1.0 2.0 0.00 0.00 0.00 58 1014.3
20260904232031 92 321 0.0 2.0 0.00 0.00 0.00 57 1014.4
20260904231551 92 0 0.0 2.0 0.00 0.00 0.00 56 1014.3
20260904231026 92 357 0.0 4.0 0.00 0.00 0.00 56 1014.2
20260904230525 93 357 2.0 4.0 0.00 0.00 0.00 54 1014.3
20260904230054 93 1 1.0 3.0 0.00 0.00 0.00 54 1014.3
20260904225528 93 344 1.0 3.0 0.00 0.00 0.00 53 1014.3
20260904225023 94 354 1.0 4.0 0.00 0.00 0.00 53 1014.3
20260904224548 94 0 2.0 5.0 0.00 0.00 0.00 52 1014.3
20260904224024 94 8 3.0 5.0 0.00 0.00 0.00 51 1014.3
20260904223525 94 353 2.0 5.0 0.00 0.00 0.00 51 1014.3
20260904223050 95 1 1.0 3.0 0.00 0.00 0.00 50 1014.3
20260904222525 95 130 1.0 4.0 0.00 0.00 0.00 49 1014.1
20260904222024 95 137 2.0 5.0 0.00 0.00 0.00 48 1014.0
20260904221548 96 100 2.0 5.0 0.00 0.00 0.00 48 1013.9
20260904221025 96 108 3.0 6.0 0.00 0.00 0.00 47 1014.0
20260904220525 97 143 3.0 6.0 0.00 0.00 0.00 48 1013.9
20260904220046 97 81 2.0 7.0 0.00 0.00 0.00 48 1013.8
20260904215528 97 92 3.0 7.0 0.00 0.00 0.00 49 1014.0
20260904215025 98 139 4.0 7.0 0.00 0.00 0.00 47 1013.9
20260904214550 98 127 2.0 5.0 0.00 0.00 0.00 48 1014.0
20260904214030 98 128 3.0 6.0 0.00 0.00 0.00 47 1013.9
20260904213530 98 91 3.0 6.0 0.00 0.00 0.00 47 1014.0
20260904213050 98 100 2.0 5.0 0.00 0.00 0.00 48 1014.0
20260904212529 98 109 2.0 5.0 0.00 0.00 0.00 47 1014.1
20260904212028 98 131 2.0 6.0 0.00 0.00 0.00 47 1014.1
20260904211546 99 78 2.0 8.0 0.00 0.00 0.00 47 1014.2
20260904211028 99 132 3.0 8.0 0.00 0.00 0.00 47 1014.3
20260904210525 99 96 1.0 6.0 0.00 0.00 0.00 47 1014.3
20260904210048 98 91 2.0 6.0 0.00 0.00 0.00 48 1014.3
20260904205525 98 65 4.0 6.0 0.00 0.00 0.00 47 1014.3
20260904205028 98 92 3.0 6.0 0.00 0.00 0.00 47 1014.3
20260904204543 98 81 3.0 6.0 0.00 0.00 0.00 48 1014.3
20260904204024 98 100 2.0 6.0 0.00 0.00 0.00 48 1014.5
20260904203524 98 173 1.0 6.0 0.00 0.00 0.00 48 1014.6
20260904203051 98 83 3.0 6.0 0.00 0.00 0.00 47 1014.7
20260904202524 98 122 1.0 7.0 0.00 0.00 0.00 48 1014.7
20260904202025 98 120 3.0 10.0 0.00 0.00 0.00 48 1014.7
20260904201549 99 90 5.0 10.0 0.00 0.00 0.00 46 1015.0
20260904201025 99 323 2.0 7.0 0.00 0.00 0.00 46 1014.9
20260904200525 99 115 2.0 7.0 0.00 0.00 0.00 45 1015.0
20260904200055 98 126 3.0 8.0 0.00 0.00 0.00 46 1015.0
20260904195525 98 101 4.0 8.0 0.00 0.00 0.00 46 1015.1
20260904195026 99 85 2.0 10.0 0.00 0.00 0.00 46 1015.2
20260904194544 98 85 4.0 10.0 0.00 0.00 0.00 48 1015.3
20260904194024 98 81 4.0 8.0 0.00 0.00 0.00 48 1015.3
20260904193524 98 179 3.0 7.0 0.00 0.00 0.00 46 1015.4
20260904193050 97 123 4.0 7.0 0.00 0.00 0.00 47 1015.4
20260904192525 97 116 1.0 8.0 0.00 0.00 0.00 47 1015.6
20260904192025 98 222 3.0 8.0 0.00 0.00 0.00 46 1015.7
20260904191547 98 159 5.0 8.0 0.00 0.00 0.00 47 1015.8
20260904191025 98 89 3.0 8.0 0.00 0.00 0.00 46 1015.9
20260904190527 98 100 2.0 8.0 0.00 0.00 0.00 47 1015.9
20260904190057 98 106 1.0 7.0 0.00 0.00 0.00 47 1015.9
20260904185523 98 30 1.0 8.0 0.00 0.00 0.00 45 1015.9
20260904185026 97 69 4.0 8.0 0.00 0.00 0.00 49 1015.9
20260904184601 97 88 1.0 9.0 0.00 0.00 0.00 47 1016.1
20260904184028 98 105 3.0 9.0 0.00 0.00 0.00 48 1016.2
20260904183525 97 100 3.0 9.0 0.00 0.00 0.00 47 1016.2
20260904183048 97 0 2.0 6.0 0.00 0.00 0.00 47 1016.3
20260904182525 97 115 3.0 8.0 0.00 0.00 0.00 48 1016.3
20260904182031 97 185 3.0 8.0 0.00 0.00 0.00 50 1016.4
20260904181544 98 84 3.0 8.0 0.00 0.00 0.00 48 1016.3
20260904181027 96 88 1.0 4.0 0.00 0.00 0.00 51 1016.4
20260904180524 96 279 2.0 4.0 0.00 0.00 0.00 50 1016.4
20260904175525 96 83 1.0 4.0 0.00 0.00 0.00 52 1016.8
20260904175025 96 0 1.0 4.0 0.00 0.00 0.00 51 1016.9
20260904174548 95 110 3.0 4.0 0.00 0.00 0.00 50 1016.9
20260904174026 95 83 1.0 7.0 0.00 0.00 0.00 52 1017.1
20260904173525 95 81 2.0 7.0 0.00 0.00 0.00 53 1017.1
20260904173050 95 110 2.0 5.0 0.00 0.00 0.00 55 1017.1
20260904172525 95 118 0.0 6.0 0.00 0.00 0.00 55 1017.2
20260904172025 95 93 1.0 6.0 0.00 0.00 0.00 56 1017.3
20260904171559 95 79 2.0 5.0 0.00 0.00 0.00 57 1017.3
20260904171022 94 115 2.0 4.0 0.00 0.00 0.00 56 1017.4
20260904170524 94 80 1.0 5.0 0.00 0.00 0.00 57 1017.4
20260904170049 93 77 1.0 5.0 0.00 0.00 0.00 60 1017.5
20260904165526 93 121 3.0 5.0 0.00 0.00 0.00 60 1017.6
20260904165025 93 287 1.0 5.0 0.00 0.00 0.00 59 1017.6
20260904164548 93 154 3.0 5.0 0.00 0.00 0.00 60 1017.6
20260904164028 93 137 0.0 6.0 0.00 0.00 0.00 60 1017.7
20260904163525 92 115 1.0 6.0 0.00 0.00 0.00 60 1017.7
20260904163053 92 123 1.0 5.0 0.00 0.00 0.00 62 1017.7
20260904162532 91 38 0.0 5.0 0.00 0.00 0.00 63 1017.8
20260904162024 91 79 1.0 7.0 0.00 0.00 0.00 63 1017.9
20260904161552 92 92 3.0 7.0 0.00 0.00 0.00 62 1017.8
20260904161027 91 90 3.0 5.0 0.00 0.00 0.00 64 1017.8
20260904160523 91 79 2.0 5.0 0.00 0.00 0.00 62 1017.9
20260904160050 91 0 1.0 5.0 0.00 0.00 0.00 62 1017.9
20260904155527 91 81 1.0 3.0 0.00 0.00 0.00 63 1018.0
20260904155025 91 73 1.0 4.0 0.00 0.00 0.00 62 1018.1
20260904154550 90 159 1.0 4.0 0.00 0.00 0.00 63 1018.0
20260904154025 90 164 1.0 5.0 0.00 0.00 0.00 64 1018.0
20260904153526 90 0 1.0 5.0 0.00 0.00 0.00 64 1018.1
20260904153058 90 74 2.0 4.0 0.00 0.00 0.00 66 1018.2
20260904152525 89 0 0.0 5.0 0.00 0.00 0.00 65 1018.0
20260904152024 89 0 1.0 5.0 0.00 0.00 0.00 64 1017.9
20260904151553 89 84 2.0 5.0 0.00 0.00 0.00 64 1018.0
20260904151027 89 0 0.0 4.0 0.00 0.00 0.00 66 1018.0
20260904150524 88 262 1.0 4.0 0.00 0.00 0.00 67 1018.0
20260904150051 88 164 2.0 4.0 0.00 0.00 0.00 68 1017.9
20260904145525 87 96 1.0 3.0 0.00 0.00 0.00 68 1018.0
20260904145025 87 121 0.0 2.0 0.00 0.00 0.00 69 1017.9
20260904144548 87 289 0.0 2.0 0.00 0.00 0.00 68 1017.9
20260904144028 87 307 1.0 6.0 0.00 0.00 0.00 70 1017.8
20260904143525 86 159 1.0 6.0 0.00 0.00 0.00 71 1017.8
20260904143046 86 117 4.0 6.0 0.00 0.00 0.00 71 1017.7
20260904142525 85 128 4.0 6.0 0.00 0.00 0.00 73 1017.7
20260904142024 84 152 3.0 5.0 0.00 0.00 0.00 74 1017.6
20260904141603 84 160 1.0 4.0 0.00 0.00 0.00 76 1017.7
20260904141026 83 144 2.0 7.0 0.00 0.00 0.00 76 1017.7
20260904140525 82 146 2.0 7.0 0.00 0.00 0.00 78 1017.6
20260904140052 82 100 1.0 6.0 0.00 0.00 0.00 81 1017.5
20260904135525 81 106 3.0 6.0 0.00 0.00 0.00 80 1017.5
20260904135026 81 127 3.0 6.0 0.00 0.00 0.00 81 1017.5
20260904134546 80 114 3.0 6.0 0.00 0.00 0.00 82 1017.5
20260904134025 80 123 4.0 6.0 0.00 0.00 0.00 85 1017.6
20260904133525 79 105 3.0 5.0 0.00 0.00 0.00 87 1017.6
20260904133049 78 122 2.0 4.0 0.00 0.00 0.00 89 1017.6
20260904132526 78 136 2.0 3.0 0.00 0.00 0.00 90 1017.6
20260904132026 77 160 0.0 3.0 0.00 0.00 0.00 91 1017.6
20260904131605 77 161 2.0 3.0 0.00 0.00 0.00 91 1017.7
20260904131025 77 162 0.0 2.0 0.00 0.00 0.00 92 1017.7
20260904130525 76 161 1.0 2.0 0.00 0.00 0.00 92 1017.7
20260904130050 76 111 1.0 2.0 0.00 0.00 0.00 92 1017.7
20260904125523 76 169 0.0 2.0 0.00 0.00 0.00 92 1017.8
20260904125025 76 129 0.0 2.0 0.00 0.00 0.00 92 1017.7
20260904124551 76 0 0.0 2.0 0.00 0.00 0.00 92 1017.7
20260904124028 75 129 0.0 2.0 0.00 0.00 0.00 92 1017.5
20260904123528 75 0 0.0 2.0 0.00 0.00 0.00 92 1017.6
20260904123103 75 129 0.0 2.0 0.00 0.00 0.00 92 1017.5
20260904122527 75 0 0.0 2.0 0.00 0.00 0.00 92 1017.5
20260904122025 74 129 0.0 2.0 0.00 0.00 0.00 92 1017.5
20260904121545 74 108 0.0 2.0 0.00 0.00 0.00 92 1017.5
20260904121028 74 108 0.0 2.0 0.00 0.00 0.00 92 1017.6
20260904120525 74 108 1.0 2.0 0.00 0.00 0.00 92 1017.5
20260904120050 73 354 0.0 2.0 0.00 0.00 0.00 92 1017.5
20260904115527 73 0 0.0 2.0 0.00 0.00 0.00 92 1017.5
20260904115029 73 354 0.0 2.0 0.00 0.00 0.00 92 1017.5
20260904114550 73 0 0.0 2.0 0.00 0.00 0.00 92 1017.5
20260904114025 73 354 0.0 2.0 0.00 0.00 0.00 92 1017.4
20260904113524 73 354 0.0 2.0 0.00 0.00 0.00 92 1017.4
20260904113049 73 0 0.0 2.0 0.00 0.00 0.00 91 1017.4
20260904112524 73 0 0.0 0.0 0.00 0.00 0.00 91 1017.3
20260904112027 73 0 0.0 0.0 0.00 0.00 0.00 91 1017.4
20260904111555 73 0 0.0 2.0 0.00 0.00 0.00 91 1017.2
20260904111054 73 0 0.0 2.0 0.00 0.00 0.00 91 1017.1
20260904110524 73 0 0.0 2.0 0.00 0.00 0.00 91 1017.1
20260904110053 73 354 0.0 2.0 0.00 0.00 0.00 91 1017.0
20260904105526 74 352 0.0 1.0 0.00 0.00 0.00 91 1016.8
20260904105027 74 0 0.0 0.0 0.00 0.00 0.00 91 1016.8
20260904104549 74 0 0.0 0.0 0.00 0.00 0.00 91 1016.7
20260904104028 74 0 0.0 0.0 0.00 0.00 0.00 91 1016.6
20260904103529 74 0 0.0 0.0 0.00 0.00 0.00 91 1016.7
20260904103047 74 0 0.0 0.0 0.00 0.00 0.00 91 1016.7
20260904102525 74 0 0.0 0.0 0.00 0.00 0.00 91 1016.7
20260904102026 74 0 0.0 0.0 0.00 0.00 0.00 91 1016.8
20260904101551 74 0 0.0 0.0 0.00 0.00 0.00 91 1016.7
20260904101026 74 0 0.0 0.0 0.00 0.00 0.00 91 1016.5
20260904100527 74 0 0.0 0.0 0.00 0.00 0.00 91 1016.6
20260904100045 74 0 0.0 0.0 0.00 0.00 0.00 91 1016.5
20260904095527 74 0 0.0 0.0 0.00 0.00 0.00 91 1016.4
20260904095023 74 0 0.0 2.0 0.00 0.00 0.00 91 1016.4
20260904094550 74 0 0.0 2.0 0.00 0.00 0.00 91 1016.4
20260904094024 74 0 0.0 0.0 0.00 0.00 0.00 91 1016.4
20260904093524 74 0 0.0 2.0 0.00 0.00 0.00 91 1016.3
20260904093049 75 0 0.0 2.0 0.00 0.00 0.00 91 1016.3
20260904092526 75 107 0.0 2.0 0.00 0.00 0.00 91 1016.3
20260904092027 75 107 0.0 2.0 0.00 0.00 0.00 91 1016.4
20260904091551 75 0 0.0 1.0 0.00 0.00 0.00 91 1016.3
20260904091024 75 0 0.0 0.0 0.00 0.00 0.00 91 1016.3
20260904090523 75 0 0.0 2.0 0.00 0.00 0.00 91 1016.2
20260904090050 75 107 0.0 2.0 0.00 0.00 0.00 91 1016.3
20260904085531 75 0 0.0 2.0 0.00 0.00 0.00 91 1016.3
20260904085025 75 107 0.0 2.0 0.00 0.00 0.00 91 1016.3
20260904084548 75 0 0.0 2.0 0.00 0.00 0.00 91 1016.4
20260904084025 75 0 0.0 2.0 0.00 0.00 0.00 91 1016.2
20260904083525 75 0 0.0 2.0 0.00 0.00 0.00 91 1016.3
20260904083057 75 0 0.0 2.0 0.00 0.00 0.00 91 1016.3
20260904082524 76 0 0.0 2.0 0.00 0.00 0.00 91 1016.3
20260904082024 76 107 0.0 2.0 0.00 0.00 0.00 91 1016.3
20260904081551 76 0 0.0 2.0 0.00 0.00 0.00 91 1016.2
20260904081025 76 104 1.0 2.0 0.00 0.00 0.00 91 1016.2
20260904080524 76 165 0.0 2.0 0.00 0.00 0.00 91 1016.1
20260904080047 76 115 1.0 2.0 0.00 0.00 0.00 91 1016.1
20260904075526 76 117 1.0 2.0 0.00 0.00 0.00 91 1016.1
20260904075025 76 137 0.0 1.0 0.00 0.00 0.00 91 1016.1
20260904074554 76 0 0.0 0.0 0.00 0.00 0.00 91 1016.0
20260904074025 76 0 0.0 2.0 0.00 0.00 0.00 91 1016.0
20260904073524 76 0 0.0 2.0 0.00 0.00 0.00 91 1015.9
20260904073050 76 0 0.0 2.0 0.00 0.00 0.00 91 1015.9
20260904072525 76 137 1.0 2.0 0.00 0.00 0.00 91 1015.9
20260904072024 76 118 1.0 2.0 0.00 0.00 0.00 91 1016.0
20260904071551 76 114 1.0 2.0 0.00 0.00 0.00 90 1016.0
20260904071026 76 135 1.0 1.0 0.00 0.00 0.00 90 1015.9
20260904070527 77 135 0.0 1.0 0.00 0.00 0.00 90 1015.8
20260904070047 77 0 0.0 0.0 0.00 0.00 0.00 90 1015.9
20260904065529 77 0 0.0 1.0 0.00 0.00 0.00 90 1015.9
20260904065026 77 0 0.0 1.0 0.00 0.00 0.00 90 1015.8
20260904064554 77 135 0.0 1.0 0.00 0.00 0.00 90 1015.9
20260904064029 77 0 0.0 2.0 0.00 0.00 0.00 90 1015.9
20260904063523 77 0 0.0 2.0 0.00 0.00 0.00 90 1016.1
20260904063106 77 0 1.0 2.0 0.00 0.00 0.00 90 1016.2
20260904062530 77 121 1.0 2.0 0.00 0.00 0.00 90 1016.2
20260904062028 77 117 0.0 2.0 0.00 0.00 0.00 90 1016.2
20260904061556 77 124 1.0 2.0 0.00 0.00 0.00 90 1016.2
20260904061028 77 102 1.0 2.0 0.00 0.00 0.00 90 1016.3
20260904060530 77 102 0.0 2.0 0.00 0.00 0.00 90 1016.3
20260904060105 77 0 0.0 0.0 0.00 0.00 0.00 90 1016.3
20260904055525 77 0 0.0 0.0 0.00 0.00 0.00 90 1016.3
20260904055026 77 0 0.0 0.0 0.00 0.00 0.00 90 1016.2